UTTI_(FIN-AFB) current weather conditions

sailwx.info

Wind from 190 at 5 knots

Air temperature 4.0° C
Visibility: greater than 5.4 NM
Dewpoint -2.0° C

Last reported at 2018-Apr-27 05:50 UTC.
Time now 2018-Apr-27 06:48 UTC

Location: N 60°54' E 026°56'.
View on Google Maps.

See reports from other nearby stations

  
Tides and Currents Weather Stations Pressure Air Temp Water Temp Dewpoint Dewpoint Depression Visibility Wind Speed Wind Dir Waves Ship Positions
date/time (UTC)wind fromknots sea level pressurealtimeterstation pressurevisibilityair tempwater tempwave heightnotes
2018-Apr-27 05:50 190 5 5.4 4.0
2018-Apr-27 05:20 210 4 5.4 4.0
2018-Apr-27 04:50 220 1 5.4 3.0
2018-Apr-27 04:20 240 1 5.4 2.0
2018-Apr-27 03:50 230 5 5.4 1.0
2018-Apr-27 03:20 220 5 5.4 1.0
2018-Apr-27 02:50 230 4 5.4-0.0
2018-Apr-27 02:20 210 5 5.4-0.0
2018-Apr-27 01:50 250 4 5.4 1.0
2018-Apr-27 01:20 220 2 5.4-0.0
2018-Apr-27 00:50 250 2 5.4 2.0
2018-Apr-27 00:20 250 5 5.4 2.0
2018-Apr-26 23:50 230 4 5.4 3.0
2018-Apr-26 23:20 250 4 5.4 3.0
2018-Apr-26 22:50 250 4 5.4 4.0
2018-Apr-26 22:20 260 2 5.4 4.0
2018-Apr-26 21:50 270 2 5.4 4.0
2018-Apr-26 21:20 270 2 5.4 4.0
2018-Apr-26 20:50 260 2 5.4 4.0
2018-Apr-26 20:20 230 1 5.4 4.0
2018-Apr-26 19:50 230 1 5.4 5.0
2018-Apr-26 19:20 210 4 5.4 5.0
2018-Apr-26 18:50 210 4 5.4 6.0 Showers in the vicinity.
2018-Apr-26 18:20 210 5 5.4 7.0 Showers in the vicinity.
2018-Apr-26 17:50 190 6 5.4 8.0
2018-Apr-26 17:20 210 6 5.4 9.0
2018-Apr-26 16:50 280 2 5.410.0
2018-Apr-26 16:20 280 5 5.4 9.0
2018-Apr-26 15:50 280 2 5.4 9.0
2018-Apr-26 15:20 280 5 5.4 9.0
2018-Apr-26 14:50 290 6 5.4 9.0
2018-Apr-26 14:20 290 6 5.4 9.0
2018-Apr-26 13:50 300 6 5.410.0
2018-Apr-26 13:20 290 9 5.4 9.0
2018-Apr-26 12:50 290 12 5.4 9.0
2018-Apr-26 12:20 290 6 5.4 9.0 Light rain showers.
2018-Apr-26 11:50 280 6 5.4 9.0 Showers in the vicinity.
2018-Apr-26 11:20 230 5 5.4 9.0 Showers in the vicinity.
2018-Apr-26 10:50 250 12 5.4 9.0 Showers in the vicinity.
2018-Apr-26 10:20 270 9 5.410.0 Showers in the vicinity.
2018-Apr-26 09:50 250 7 5.410.0 Showers in the vicinity.
2018-Apr-26 09:20 270 7 5.4 9.0
2018-Apr-26 08:50 280 6 5.4 8.0
2018-Apr-26 08:20 250 7 5.4 9.0
2018-Apr-26 07:50 260 5 5.4 8.0
2018-Apr-26 07:20 230 5 5.4 7.0
2018-Apr-26 06:50 190 2 5.4 7.0
2018-Apr-26 06:20 220 2 5.4 5.0
2018-Apr-26 05:50 260 6 5.4 5.0
2018-Apr-26 05:20 260 5 5.4 5.0
2018-Apr-26 04:50 260 5 5.4 4.0
2018-Apr-26 04:20 270 5 5.4 4.0
2018-Apr-26 03:50 270 5 5.4 4.0
2018-Apr-26 03:20 270 4 5.4 4.0
2018-Apr-26 02:50 240 2 1.4 3.0 Mist.
2018-Apr-26 02:20 220 4 1.7 3.0 Mist.
2018-Apr-26 01:50 220 4 2.3 4.0 Mist.
2018-Apr-26 01:20 220 2 3.8 4.0
2018-Apr-26 00:50 230 4 3.8 4.0
2018-Apr-26 00:20 220 5 4.9 4.0
2018-Apr-25 23:50 210 5 4.9 4.0
2018-Apr-25 23:20 200 5 3.2 4.0
2018-Apr-25 22:50 210 5 4.3 4.0
2018-Apr-25 22:20 200 6 5.4 5.0
2018-Apr-25 21:50 220 4 5.4 5.0
2018-Apr-25 21:20 210 6 5.4 5.0 Light rain showers.
2018-Apr-25 20:50 200 6 5.4 5.0 Light rain showers.
2018-Apr-25 20:20 200 6 5.4 5.0
2018-Apr-25 19:50 200 6 5.4 5.0 Light rain showers.
2018-Apr-25 19:20 170 6 5.4 6.0 Light rain showers.
2018-Apr-25 18:50 180 6 5.4 6.0 Light rain showers.
2018-Apr-25 18:20 180 7 5.4 6.0 Light rain showers.
2018-Apr-25 17:50 190 5 5.4 7.0
2018-Apr-25 17:20 190 6 5.4 7.0
2018-Apr-25 16:50 180 6 5.4 8.0
2018-Apr-25 16:20 170 6 5.4 8.0
2018-Apr-25 15:50 200 5 5.4 8.0
2018-Apr-25 15:20 200 5 5.4 7.0
2018-Apr-25 14:50 200 5 5.4 7.0
2018-Apr-25 14:20 200 4 5.4 7.0
2018-Apr-25 13:50 210 6 4.9 7.0 Light rain showers.
2018-Apr-25 13:20 160 6 5.4 8.0
2018-Apr-25 12:50 180 6 5.4 8.0 Light rain showers.
2018-Apr-25 12:20 200 6 5.4 8.0 Light rain showers.
2018-Apr-25 11:50 170 5 5.4 8.0
2018-Apr-25 11:20 190 6 5.4 8.0 Light rain showers.
2018-Apr-25 10:50 190 6 gusting 19 5.4 7.0 Light rain.
2018-Apr-25 10:20 190 4 5.4 7.0
2018-Apr-25 09:50 210 6 5.4 7.0
2018-Apr-25 09:20 180 6 5.4 6.0 Light rain.
2018-Apr-25 08:50 160 6 5.4 6.0
2018-Apr-25 08:20 140 5 5.4 6.0 Light rain.
2018-Apr-25 07:50 150 6 5.4 6.0 Light rain.
2018-Apr-25 07:20 150 6 5.4 6.0
2018-Apr-25 06:50 150 5 5.4 6.0
2018-Apr-25 06:20 160 5 5.4 6.0 Light rain.